FW9412 Weather Reports


Display with metric or nautical units.
time (UTC)temp
F
wind
direction
speed
MPH
gust
MPH
rain 1hr
in
rain 24hr
in
rain mn
in
humidity
%
barometer
mb
20260831144810 64 158 0.0 0.0 0.07 0.01 0.01 96 1020.2
20260831144306 64 157 0.0 0.0 0.00 0.00 0.00 96 1020.3
20260831143806 64 158 0.0 0.0 0.00 0.00 0.00 96 1020.3
20260831143301 64 158 0.0 0.0 0.00 0.00 0.00 96 1020.1
20260831142756 64 158 0.0 0.0 0.00 0.00 0.00 96 1020.0
20260831142252 64 158 0.0 0.0 0.00 0.00 0.00 96 1019.9
20260831141751 64 158 0.0 0.0 0.00 0.00 0.00 95 1019.4
20260831141251 64 158 0.0 0.0 0.00 0.00 0.00 96 1019.4
20260831140746 64 158 0.0 0.0 0.00 0.00 0.00 96 1019.7
20260831140241 64 158 0.0 0.0 0.00 0.00 0.00 96 1019.4
20260831135738 64 158 0.0 0.0 0.00 0.00 0.00 95 1019.5
20260831135234 64 158 0.0 0.0 0.00 0.00 0.00 95 1019.9
20260831134729 64 158 0.0 0.0 0.00 0.00 0.00 95 1020.0
20260831134226 65 158 0.0 0.0 0.00 0.00 0.00 95 1019.9
20260831133725 64 158 0.0 0.0 0.00 0.00 0.00 95 1020.0
20260831133219 64 158 0.0 0.0 0.00 0.00 0.00 95 1020.0
20260831132714 64 159 0.0 0.0 0.00 0.00 0.00 95 1020.0
20260831132209 64 159 0.0 0.0 0.00 0.00 0.00 95 1019.9
20260831131709 64 160 0.0 0.0 0.00 0.00 0.00 96 1019.9
20260831131206 64 162 0.0 0.0 0.00 0.00 0.00 96 1019.7
20260831130700 63 161 0.0 0.0 0.00 0.00 0.00 96 1020.0
20260831130156 63 162 0.0 0.0 0.00 0.00 0.00 96 1019.8
20260831125654 63 162 0.0 0.0 0.00 0.00 0.00 96 1019.7
20260831125150 63 159 0.0 0.0 0.00 0.00 0.00 96 1020.0
20260831124645 63 159 0.0 0.0 0.00 0.00 0.00 96 1020.2
20260831124141 63 159 0.0 0.0 0.00 0.00 0.00 96 1020.0
20260831123636 62 159 0.0 0.0 0.00 0.00 0.00 96 1019.9
20260831123135 62 158 0.0 0.0 0.00 0.00 0.00 96 1019.7
20260831122634 62 158 0.0 0.0 0.00 0.00 0.00 96 1019.9
20260831122131 62 158 0.0 0.0 0.00 0.00 0.00 97 1020.2
20260831121630 62 159 0.0 0.0 0.00 0.00 0.00 97 1020.1
20260831121126 62 159 0.0 0.0 0.00 0.00 0.00 97 1019.8
20260831120621 62 160 0.0 0.0 0.00 0.00 0.00 97 1020.4
20260831120116 62 160 0.0 0.0 0.00 0.00 0.00 97 1020.3
20260831115612 61 159 0.0 0.0 0.00 0.00 0.00 97 1020.1
20260831115107 61 158 0.0 0.0 0.00 0.00 0.00 97 1020.1
20260831114606 61 158 0.0 0.0 0.00 0.00 0.00 97 1020.3
20260831114101 61 159 0.0 0.0 0.00 0.00 0.00 97 1020.5
20260831113600 61 159 0.0 0.0 0.00 0.00 0.00 97 1020.3
20260831113056 61 160 0.0 0.0 0.00 0.00 0.00 97 1020.3
20260831112555 61 160 0.0 0.0 0.00 0.00 0.00 97 1020.2
20260831112051 61 160 0.0 0.0 0.00 0.00 0.00 97 1020.1
20260831111547 61 163 0.0 0.0 0.00 0.00 0.00 97 1020.1
20260831111042 61 161 0.0 0.0 0.00 0.00 0.00 97 1020.1
20260831110537 61 161 0.0 0.0 0.00 0.00 0.00 97 1020.2
20260831110032 61 162 0.0 0.0 0.00 0.00 0.00 97 1020.2
20260831105531 61 162 0.0 0.0 0.00 0.00 0.00 97 1020.0
20260831105026 61 161 0.0 0.0 0.00 0.00 0.00 97 1020.0
20260831104523 61 159 0.0 0.0 0.00 0.00 0.00 97 1019.8
20260831104018 61 160 0.0 0.0 0.00 0.00 0.00 97 1020.0
20260831103513 61 158 0.0 0.0 0.00 0.00 0.00 97 1020.0
20260831103009 61 158 0.0 0.0 0.00 0.00 0.00 97 1019.7
20260831102503 61 159 0.0 0.0 0.00 0.00 0.00 97 1019.9
20260831101958 61 157 0.0 0.0 0.00 0.00 0.00 97 1019.7
20260831101453 61 157 0.0 0.0 0.00 0.00 0.00 97 1019.9
20260831100949 61 161 0.0 0.0 0.00 0.00 0.00 97 1019.8
20260831100445 61 159 0.0 0.0 0.00 0.00 0.00 97 1019.7
20260831095940 61 162 0.0 0.0 0.00 0.00 0.00 97 1019.9
20260831095439 61 162 0.0 0.0 0.00 0.00 0.00 97 1019.8
20260831094934 61 161 0.0 0.0 0.00 0.00 0.00 97 1019.9
20260831094430 61 160 0.0 0.0 0.00 0.00 0.00 97 1019.4
20260831093926 61 162 0.0 0.0 0.00 0.00 0.00 97 1019.6
20260831093420 61 158 0.0 0.0 0.00 0.00 0.00 97 1019.7
20260831092918 61 157 0.0 0.0 0.00 0.00 0.00 97 1019.6
20260831092413 61 158 0.0 0.0 0.00 0.00 0.00 97 1019.5
20260831091908 61 157 0.0 0.0 0.00 0.00 0.00 97 1019.7
20260831091403 61 162 0.0 0.0 0.00 0.00 0.00 97 1019.7
20260831090858 61 161 0.0 0.0 0.00 0.00 0.00 97 1019.8
20260831090354 61 159 0.0 0.0 0.00 0.00 0.00 97 1019.6
20260831085850 61 160 0.0 0.0 0.00 0.00 0.00 97 1019.7
20260831085345 61 162 0.0 0.0 0.00 0.00 0.00 97 1020.0
20260831084844 61 166 0.0 0.0 0.00 0.00 0.00 97 1020.0
20260831084341 61 162 0.0 0.0 0.00 0.00 0.00 97 1019.9
20260831083837 61 161 0.0 0.0 0.00 0.00 0.00 97 1019.9
20260831083332 61 160 0.0 0.0 0.00 0.00 0.00 97 1019.7
20260831082831 61 163 0.0 0.0 0.00 0.00 0.00 97 1019.9
20260831082326 61 160 0.0 0.0 0.00 0.00 0.00 97 1020.0
20260831081822 61 162 0.0 0.0 0.00 0.00 0.00 97 1019.9
20260831081317 61 163 0.0 0.0 0.00 0.00 0.00 97 1019.9
20260831080812 61 164 0.0 0.0 0.00 0.00 0.00 97 1019.7
20260831080307 61 164 0.0 0.0 0.00 0.00 0.00 97 1019.7
20260831075803 61 162 0.0 0.0 0.00 0.00 0.00 97 1019.8
20260831075258 61 164 0.0 0.0 0.00 0.00 0.00 97 1019.8
20260831074758 61 162 0.0 0.0 0.00 0.00 0.00 97 1019.8
20260831074251 61 162 0.0 0.0 0.00 0.00 0.00 97 1019.6
20260831073748 61 165 0.0 0.0 0.00 0.00 0.00 97 1019.7
20260831073246 61 163 0.0 0.0 0.00 0.00 0.00 97 1019.7
20260831072741 61 162 0.0 0.0 0.00 0.00 0.00 97 1019.8
20260831072238 61 163 0.0 0.0 0.00 0.00 0.00 97 1019.9
20260831071738 61 163 0.0 0.0 0.00 0.00 0.00 97 1019.7
20260831071233 61 166 0.0 0.0 0.00 0.00 0.00 97 1019.8
20260831070727 61 167 0.0 0.0 0.00 0.00 0.00 97 1019.7
20260831070221 61 161 0.0 0.0 0.00 0.00 0.00 97 1019.7
20260831065720 61 164 0.0 0.0 0.00 0.00 0.00 96 1019.8
20260831065218 62 161 0.0 0.0 0.00 0.00 0.00 96 1019.9
20260831064713 62 161 0.0 0.0 0.00 0.00 0.00 96 1019.5
20260831064208 62 164 0.0 0.0 0.00 0.00 0.00 96 1019.9
20260831063704 62 161 0.0 0.0 0.00 0.00 0.00 96 1019.9
20260831063154 62 161 0.0 0.0 0.00 0.00 0.00 96 1019.8
20260831062648 62 160 0.0 0.0 0.00 0.00 0.00 96 1019.8
20260831062142 62 161 0.0 0.0 0.00 0.00 0.00 96 1019.9
20260831061640 62 161 0.0 0.0 0.00 0.00 0.00 96 1020.1
20260831061137 62 161 0.0 0.0 0.00 0.00 0.00 96 1020.0
20260831060632 62 160 0.0 0.0 0.00 0.00 0.00 96 1020.1
20260831060126 62 159 0.0 0.0 0.00 0.00 0.00 96 1020.0
20260831055626 62 161 0.0 0.0 0.00 0.00 0.00 96 1020.1
20260831055121 62 163 0.0 0.0 0.00 0.00 0.00 96 1020.1
20260831054621 62 163 0.0 0.0 0.00 0.00 0.00 96 1020.0
20260831054115 62 163 0.0 0.0 0.00 0.00 0.00 95 1020.2
20260831053614 62 164 0.0 0.0 0.00 0.00 0.00 95 1020.3
20260831053108 63 166 0.0 0.0 0.00 0.00 0.00 95 1019.9
20260831052607 63 167 0.0 0.0 0.00 0.00 0.00 95 1020.3
20260831052106 63 169 0.0 0.0 0.00 0.00 0.00 95 1020.5
20260831051604 63 178 0.0 0.0 0.00 0.00 0.00 95 1020.5
20260831051104 63 172 0.0 0.0 0.00 0.00 0.00 94 1020.3
20260831050604 63 168 0.0 0.0 0.00 0.00 0.00 94 1020.4
20260831045602 63 168 0.0 0.0 0.00 0.00 0.00 93 1020.6
20260831045057 63 168 0.0 0.0 0.00 0.00 0.00 93 1020.5
20260831044553 63 169 0.0 0.0 0.00 0.00 0.00 93 1020.5
20260831044048 63 171 0.0 0.0 0.00 0.00 0.00 94 1020.2
20260831043543 63 170 0.0 0.0 0.00 0.00 0.00 94 1020.4
20260831043039 63 170 0.0 0.0 0.00 0.00 0.00 94 1020.4
20260831042538 63 172 0.0 0.0 0.00 0.00 0.00 94 1020.4
20260831042033 63 174 0.0 0.0 0.00 0.00 0.00 94 1020.3
20260831041528 63 171 0.0 0.0 0.00 0.00 0.00 94 1020.4
20260831041027 63 172 0.0 0.0 0.00 0.00 0.00 94 1020.3
20260831040522 63 169 0.0 0.0 0.00 0.00 0.00 94 1020.5
20260831040021 63 173 0.0 0.0 0.00 0.00 0.00 93 1020.2
20260831035514 63 174 0.0 0.0 0.00 0.00 0.00 93 1020.3
20260831035009 63 174 0.0 0.0 0.00 0.00 0.00 93 1020.3
20260831034503 63 175 0.0 0.0 0.00 0.00 0.00 93 1020.5
20260831033959 63 176 0.0 0.0 0.00 0.00 0.00 93 1020.4
20260831033454 63 173 0.0 0.0 0.00 0.00 0.00 93 1020.3
20260831032949 63 179 0.0 0.0 0.00 0.00 0.00 93 1020.2
20260831032444 63 169 0.0 0.0 0.00 0.00 0.00 93 1020.2
20260831031939 63 168 0.0 0.0 0.00 0.00 0.00 93 1020.3
20260831031438 63 168 0.0 0.0 0.00 0.00 0.00 93 1020.1
20260831030938 63 170 0.0 0.0 0.00 0.00 0.00 93 1020.6
20260831030437 63 169 0.0 0.0 0.00 0.00 0.00 94 1020.2
20260831025935 63 170 0.0 0.0 0.00 0.00 0.00 94 1020.3
20260831025435 63 172 0.0 0.0 0.00 0.00 0.00 94 1020.3
20260831024931 63 170 0.0 0.0 0.00 0.00 0.00 94 1020.3
20260831024430 63 172 0.0 0.0 0.00 0.00 0.00 95 1020.2
20260831023925 63 177 0.0 0.0 0.00 0.00 0.00 95 1020.2
20260831023423 63 177 0.0 0.0 0.00 0.00 0.00 95 1020.2
20260831022919 63 177 0.0 0.0 0.00 0.00 0.00 95 1020.3
20260831022418 63 176 0.0 0.0 0.00 0.00 0.00 96 1020.3
20260831021917 63 171 0.0 0.0 0.00 0.00 0.00 96 1020.3
20260831021412 64 176 0.0 0.0 0.00 0.00 0.00 96 1020.2
20260831020908 64 175 0.0 0.0 0.00 0.00 0.00 96 1020.2
20260831020407 64 175 0.0 0.0 0.00 0.00 0.00 96 1020.1
20260831015902 64 177 0.0 0.0 0.00 0.00 0.00 96 1020.2
20260831015358 64 172 0.0 0.0 0.00 0.00 0.00 96 1020.2
20260831014853 64 173 0.0 0.0 0.00 0.00 0.00 96 1020.3
20260831014347 64 175 0.0 0.0 0.00 0.00 0.00 96 1020.7
20260831013843 64 170 0.0 0.0 0.00 0.00 0.00 96 1020.4
20260831013338 64 170 0.0 0.0 0.00 0.00 0.00 96 1020.4
20260831012832 64 175 0.0 0.0 0.00 0.00 0.00 96 1020.6
20260831012328 64 176 0.0 0.0 0.00 0.00 0.00 96 1020.4
20260831011827 64 172 0.0 0.0 0.00 0.00 0.00 96 1020.2
20260831011322 64 168 0.0 0.0 0.00 0.00 0.00 96 1020.4
20260831010813 64 168 0.0 0.0 0.00 0.00 0.00 96 1020.2
20260831010312 64 169 0.0 0.0 0.00 0.00 0.00 96 1020.4
20260831005808 64 168 0.0 0.0 0.00 0.00 0.00 96 1020.1
20260831005306 64 166 0.0 0.0 0.00 0.00 0.00 96 1020.3
20260831004758 64 167 0.0 0.0 0.00 0.00 0.00 96 1020.2
20260831004254 64 169 0.0 0.0 0.00 0.00 0.00 96 1020.1
20260831003749 64 167 0.0 0.0 0.00 0.00 0.00 96 1020.2
20260831003245 65 172 0.0 0.0 0.00 0.00 0.00 96 1020.1
20260831002744 65 172 0.0 0.0 0.00 0.00 0.00 96 1019.4
20260831002239 65 169 0.0 0.0 0.00 0.00 0.00 96 1019.6
20260831001735 65 169 0.0 0.0 0.00 0.00 0.00 96 1019.7
20260831001230 65 169 0.0 0.0 0.00 0.00 0.00 96 1019.6
20260831000727 65 168 0.0 0.0 0.00 0.00 0.00 96 1019.6
20260831000222 65 167 0.0 0.0 0.00 0.00 0.00 96 1019.4
20260830235721 65 168 0.0 0.0 0.00 0.00 0.00 96 1019.3
20260830235216 65 169 0.0 0.0 0.00 0.00 0.00 96 1019.3
20260830234710 65 173 0.0 0.0 0.00 0.00 0.00 96 1019.2
20260830234207 65 172 0.0 0.0 0.00 0.00 0.00 96 1019.2
20260830233702 65 179 0.0 0.0 0.00 0.00 0.00 96 1019.1
20260830233157 65 172 0.0 0.0 0.00 0.00 0.00 96 1019.1
20260830232653 65 171 0.0 0.0 0.00 0.00 0.00 96 1019.1
20260830232148 65 169 0.0 0.0 0.00 0.00 0.00 96 1019.2
20260830231645 65 173 0.0 0.0 0.00 0.00 0.00 96 1019.2
20260830231144 65 172 0.0 0.0 0.00 0.00 0.00 96 1019.2
20260830230639 65 168 0.0 0.0 0.00 0.00 0.00 96 1019.1
20260830230139 65 167 0.0 0.0 0.00 0.00 0.00 96 1019.2
20260830225634 65 171 0.0 0.0 0.00 0.00 0.00 96 1019.4
20260830225129 65 170 0.0 0.0 0.00 0.00 0.00 96 1019.2
20260830224628 65 167 0.0 0.0 0.00 0.00 0.00 96 1019.1
20260830224124 65 174 0.0 0.0 0.00 0.00 0.00 96 1019.2
20260830223621 65 185 0.0 0.0 0.00 0.00 0.00 96 1019.2
20260830223120 65 173 0.0 0.0 0.00 0.00 0.00 96 1019.2
20260830222614 65 182 0.0 0.0 0.00 0.00 0.00 96 1019.0
20260830222111 65 171 0.0 0.0 0.00 0.00 0.00 96 1019.3
20260830221606 65 181 1.0 1.0 0.00 0.00 0.00 96 1019.1
20260830221102 64 174 1.0 1.0 0.00 0.00 0.00 96 1019.1
20260830220557 64 170 0.0 1.0 0.00 0.00 0.00 96 1019.2
20260830220055 64 182 0.0 0.0 0.00 0.00 0.00 96 1019.3
20260830215549 64 175 0.0 0.0 0.00 0.00 0.00 96 1019.0
20260830215044 64 170 0.0 0.0 0.00 0.00 0.00 96 1019.3
20260830214539 64 174 0.0 0.0 0.00 0.00 0.00 96 1019.1
20260830214033 64 174 0.0 0.0 0.00 0.00 0.00 96 1018.9
20260830213528 64 170 0.0 0.0 0.00 0.00 0.00 96 1018.8
20260830213023 64 173 0.0 0.0 0.00 0.00 0.00 96 1019.0
20260830212519 64 171 0.0 0.0 0.00 0.00 0.00 96 1018.8
20260830212014 64 167 0.0 0.0 0.00 0.00 0.00 96 1019.1
20260830211509 64 169 0.0 0.0 0.00 0.00 0.00 96 1019.1
20260830211003 64 172 0.0 0.0 0.00 0.00 0.00 96 1019.1
20260830210503 64 169 0.0 0.0 0.00 0.00 0.00 96 1019.0
20260830210002 64 170 0.0 0.0 0.00 0.00 0.00 96 1019.3
20260830205500 64 172 0.0 0.0 0.00 0.00 0.00 96 1019.3
20260830204956 64 167 0.0 0.0 0.00 0.00 0.00 96 1019.2
20260830204455 64 169 0.0 0.0 0.00 0.00 0.00 96 1019.3
20260830203949 64 172 0.0 0.0 0.00 0.00 0.00 96 1019.3
20260830203446 64 172 0.0 0.0 0.00 0.00 0.00 96 1019.3
20260830202945 64 169 0.0 0.0 0.00 0.00 0.00 96 1019.1
20260830202440 64 168 0.0 0.0 0.00 0.00 0.00 96 1019.0
20260830201931 64 169 0.0 0.0 0.00 0.00 0.00 96 1019.2
20260830201430 64 168 0.0 0.0 0.00 0.00 0.00 96 1019.4
20260830200926 64 167 0.0 0.0 0.00 0.00 0.00 96 1019.3
20260830200425 64 167 0.0 0.0 0.00 0.00 0.00 96 1019.4
20260830195925 64 166 0.0 0.0 0.00 0.00 0.00 96 1019.3
20260830195421 64 166 0.0 0.0 0.00 0.00 0.00 95 1019.5
20260830194919 64 165 0.0 0.0 0.00 0.00 0.00 95 1019.4
20260830194418 64 165 0.0 0.0 0.00 0.00 0.00 95 1019.4
20260830193913 64 165 0.0 0.0 0.00 0.00 0.00 95 1019.3
20260830193412 64 165 0.0 0.0 0.00 0.00 0.00 95 1019.3
20260830192907 64 164 0.0 0.0 0.00 0.00 0.00 95 1019.4
20260830192402 64 166 0.0 0.0 0.00 0.00 0.00 95 1019.3
20260830191857 64 168 0.0 0.0 0.00 0.00 0.00 95 1019.4
20260830191357 64 166 0.0 0.0 0.00 0.00 0.00 95 1019.6
20260830190853 64 169 0.0 0.0 0.00 0.00 0.00 95 1019.9
20260830190348 64 167 0.0 0.0 0.00 0.00 0.00 95 1019.6
20260830185846 64 167 0.0 0.0 0.00 0.00 0.00 94 1020.0
20260830185342 64 173 0.0 0.0 0.00 0.00 0.00 93 1019.9
20260830184836 64 176 0.0 0.0 0.00 0.00 0.00 93 1020.0
20260830184331 65 179 0.0 0.0 0.00 0.00 0.00 92 1020.2
20260830183830 65 175 0.0 0.0 0.00 0.00 0.00 90 1020.1
20260830183325 66 180 0.0 0.0 0.00 0.00 0.00 88 1020.1
20260830182821 66 175 0.0 0.0 0.00 0.00 0.00 87 1020.1
20260830182316 67 184 0.0 0.0 0.00 0.00 0.00 85 1020.1
20260830181813 67 195 0.0 0.0 0.00 0.00 0.00 84 1020.1
20260830181308 67 174 0.0 0.0 0.00 0.00 0.00 84 1020.0
20260830180807 68 193 0.0 0.0 0.00 0.00 0.00 82 1020.1
20260830180301 68 202 0.0 0.0 0.00 0.00 0.00 80 1020.0
20260830175755 68 177 0.0 0.0 0.00 0.00 0.00 80 1019.8
20260830175251 68 179 0.0 0.0 0.00 0.00 0.00 78 1019.6
20260830174750 68 176 0.0 0.0 0.00 0.00 0.00 78 1019.9
20260830174246 68 174 0.0 0.0 0.00 0.00 0.00 77 1020.1
20260830173745 69 166 0.0 0.0 0.00 0.00 0.00 77 1019.6
20260830173241 69 170 0.0 0.0 0.00 0.00 0.00 77 1019.7
20260830172738 69 181 0.0 0.0 0.00 0.00 0.00 75 1019.7
20260830172234 70 175 0.0 0.0 0.00 0.00 0.00 74 1019.8
20260830171729 70 172 0.0 0.0 0.00 0.00 0.00 73 1019.7
20260830171224 70 188 0.0 0.0 0.00 0.00 0.00 72 1019.7
20260830170719 70 184 1.0 1.0 0.00 0.00 0.00 73 1019.7
20260830170218 70 193 1.0 2.0 0.00 0.00 0.00 74 1019.8
20260830165718 70 174 0.0 0.0 0.00 0.00 0.00 73 1019.6
20260830165214 70 172 0.0 0.0 0.00 0.00 0.00 74 1019.7
20260830164710 70 173 0.0 0.0 0.00 0.00 0.00 74 1019.6
20260830164205 70 167 0.0 0.0 0.00 0.00 0.00 74 1019.7
20260830163702 70 167 0.0 0.0 0.00 0.00 0.00 73 1019.6
20260830163157 70 170 0.0 0.0 0.00 0.00 0.00 73 1019.8
20260830162652 70 163 0.0 0.0 0.00 0.00 0.00 73 1019.7
20260830162148 70 178 0.0 0.0 0.00 0.00 0.00 73 1019.8
20260830161642 70 176 0.0 0.0 0.00 0.00 0.00 73 1020.1
20260830161137 70 176 0.0 0.0 0.00 0.00 0.00 74 1019.9
20260830160633 70 174 0.0 0.0 0.00 0.00 0.00 72 1019.7
20260830160127 70 166 0.0 0.0 0.00 0.00 0.00 72 1019.9
20260830155624 70 181 0.0 0.0 0.00 0.00 0.00 72 1019.7
20260830155120 70 178 0.0 0.0 0.00 0.00 0.00 73 1019.9
20260830154614 70 178 0.0 0.0 0.00 0.00 0.00 73 1020.0
20260830154111 70 174 0.0 0.0 0.00 0.00 0.00 74 1019.8
20260830153606 70 174 1.0 1.0 0.00 0.00 0.00 73 1019.8
20260830153101 70 189 2.0 2.0 0.00 0.00 0.00 73 1019.8
20260830152600 70 175 0.0 0.0 0.00 0.00 0.00 74 1020.0
20260830152059 70 175 0.0 0.0 0.00 0.00 0.00 74 1019.9
20260830151554 70 175 0.0 0.0 0.00 0.00 0.00 73 1019.8
20260830151049 70 175 0.0 0.0 0.00 0.00 0.00 74 1020.2
20260830150549 70 172 0.0 0.0 0.00 0.00 0.00 73 1020.0
20260830150043 70 177 0.0 0.0 0.00 0.00 0.00 74 1020.0
20260830145537 70 177 0.0 0.0 0.00 0.00 0.00 74 1019.8